Change the Weather History Date:

Sunday, September 29, 2013

  Actual Average Record
Temperature  
Mean Temperature 60 °F -  
Max Temperature 75 °F 64 °F 80 °F (2000)
Min Temperature 44 °F 41 °F 26 °F (1974)
Degree Days  
Heating Degree Days 6    
Growing Degree Days 10 (Base 50)    
Moisture  
Dew Point 45 °F    
Average Humidity 60    
Maximum Humidity 76    
Minimum Humidity 44    
Precipitation  
Precipitation 0.00 in - - ()
Sea Level Pressure  
Sea Level Pressure 29.86 in    
Wind  
Wind Speed 6 mph (SSE)    
Max Wind Speed 12 mph    
Max Gust Speed 17 mph    
Visibility 10 miles    
Events      
Averages and records for this station are not official NWS values.
T = Trace of Precipitation, MM = Missing Value Source: NWS Daily Summary

Daily Weather History Graph

Daily Weather History Graph

Search for Another Location

Airport or City:

Trip Planner

Search our weather history database for the weather conditions in past years. The results will help you decide how hot, cold, wet, or windy it might be!

Date:

Astronomy

Sep. 29, 2013 Rise Set
Actual Time 7:09 AM CDT 6:56 PM CDT
Civil Twilight 6:39 AM CDT 7:26 PM CDT
Nautical Twilight 6:05 AM CDT 8:00 PM CDT
Astronomical Twilight 5:29 AM CDT 8:35 PM CDT
Moon 1:37 AM CDT (9/29) 4:05 PM CDT (9/29)
Length of Visible Light 12h 46m
Length of Day
11h 47m
Waning Crescent, 27% of the Moon is Illuminated
Sep 29
Waning Crescent
Oct 4
New
Oct 11
First Quarter
Oct 18
Full
Oct 26
Last Quarter

Hourly Weather History & Observations

Time (CDT) Temp. Windchill Dew Point Humidity Pressure Visibility Wind Dir Wind Speed Gust Speed Precip Events Conditions
12:15 AM 48.2 °F - 41.0 °F 76% 29.90 in 10.0 mi South 4.6 mph - N/A   Clear
12:36 AM 48.2 °F - 39.2 °F 71% 29.90 in 10.0 mi South 4.6 mph - N/A   Clear
12:55 AM 48.2 °F - 39.2 °F 71% 29.91 in 10.0 mi South 3.5 mph - N/A   Clear
1:15 AM 48.2 °F - 39.2 °F 71% 29.91 in 10.0 mi South 4.6 mph - N/A   Clear
1:35 AM 48.2 °F - 39.2 °F 71% 29.91 in 10.0 mi South 5.8 mph - N/A   Clear
1:55 AM 48.2 °F - 41.0 °F 76% 29.91 in 10.0 mi South 5.8 mph - N/A   Clear
2:16 AM 48.2 °F - 41.0 °F 76% 29.91 in 10.0 mi South 5.8 mph - N/A   Clear
2:35 AM 48.2 °F - 39.2 °F 71% 29.91 in 10.0 mi South 4.6 mph - N/A   Clear
2:56 AM 48.2 °F - 39.2 °F 71% 29.91 in 10.0 mi South 5.8 mph - N/A   Clear
3:15 AM 48.2 °F - 39.2 °F 71% 29.90 in 10.0 mi South 5.8 mph - N/A   Clear
3:35 AM 46.4 °F 45.2 °F 39.2 °F 76% 29.90 in 10.0 mi South 3.5 mph - N/A   Clear
3:55 AM 48.2 °F - 39.2 °F 71% 29.91 in 10.0 mi South 4.6 mph - N/A   Clear
4:15 AM 48.2 °F - 39.2 °F 71% 29.91 in 10.0 mi South 4.6 mph - N/A   Clear
4:35 AM 46.4 °F 44.3 °F 39.2 °F 76% 29.91 in 10.0 mi South 4.6 mph - N/A   Clear
4:55 AM 46.4 °F 44.3 °F 39.2 °F 76% 29.91 in 10.0 mi South 4.6 mph - N/A   Clear
5:15 AM 46.4 °F 45.2 °F 39.2 °F 76% 29.91 in 10.0 mi South 3.5 mph - N/A   Clear
5:35 AM 46.4 °F 45.2 °F 39.2 °F 76% 29.91 in 10.0 mi South 3.5 mph - N/A   Clear
5:55 AM 46.4 °F 44.3 °F 39.2 °F 76% 29.91 in 10.0 mi South 4.6 mph - N/A   Clear
6:16 AM 46.4 °F 45.2 °F 37.4 °F 71% 29.92 in 10.0 mi South 3.5 mph - N/A   Clear
6:35 AM 44.6 °F 43.1 °F 37.4 °F 76% 29.92 in 10.0 mi South 3.5 mph - N/A   Clear
6:55 AM 44.6 °F 42.2 °F 37.4 °F 76% 29.92 in 10.0 mi South 4.6 mph - N/A   Clear
7:15 AM 44.6 °F 42.2 °F 37.4 °F 76% 29.93 in 10.0 mi South 4.6 mph - N/A   Clear
7:35 AM 46.4 °F 44.3 °F 37.4 °F 71% 29.92 in 10.0 mi SSE 4.6 mph - N/A   Clear
7:55 AM 46.4 °F 44.3 °F 37.4 °F 71% 29.93 in 10.0 mi South 4.6 mph - N/A   Clear
8:15 AM 48.2 °F - 39.2 °F 71% 29.92 in 10.0 mi South 5.8 mph - N/A   Clear
8:35 AM 48.2 °F - 39.2 °F 71% 29.92 in 10.0 mi South 4.6 mph - N/A   Clear
8:55 AM 51.8 °F - 42.8 °F 71% 29.92 in 10.0 mi South 4.6 mph - N/A   Clear
9:16 AM 53.6 °F - 42.8 °F 67% 29.92 in 10.0 mi South 4.6 mph - N/A   Clear
9:35 AM 53.6 °F - 42.8 °F 67% 29.93 in 10.0 mi South 4.6 mph - N/A   Clear
9:55 AM 55.4 °F - 44.6 °F 67% 29.92 in 10.0 mi SSE 4.6 mph - N/A   Clear
10:15 AM 57.2 °F - 44.6 °F 63% 29.92 in 10.0 mi SSE 5.8 mph - N/A   Clear
10:35 AM 59.0 °F - 46.4 °F 63% 29.92 in 10.0 mi SSE 4.6 mph - N/A   Clear
10:55 AM 60.8 °F - 46.4 °F 59% 29.92 in 10.0 mi SSE 5.8 mph - N/A   Clear
11:15 AM 62.6 °F - 48.2 °F 59% 29.92 in 10.0 mi SE 5.8 mph - N/A   Clear
11:36 AM 64.4 °F - 48.2 °F 56% 29.91 in 10.0 mi SSE 6.9 mph - N/A   Clear
11:55 AM 66.2 °F - 50.0 °F 56% 29.91 in 10.0 mi South 6.9 mph - N/A   Clear
12:16 PM 66.2 °F - 50.0 °F 56% 29.90 in 10.0 mi South 8.1 mph - N/A   Clear
12:35 PM 69.8 °F - 51.8 °F 53% 29.89 in 10.0 mi South 8.1 mph - N/A   Clear
12:55 PM 69.8 °F - 51.8 °F 53% 29.89 in 10.0 mi SSE 5.8 mph - N/A   Clear
1:15 PM 69.8 °F - 51.8 °F 53% 29.88 in 10.0 mi SSE 11.5 mph - N/A   Clear
1:35 PM 71.6 °F - 51.8 °F 50% 29.87 in 10.0 mi SSE 8.1 mph - N/A   Clear
1:55 PM 73.4 °F - 51.8 °F 47% 29.86 in 10.0 mi SSE 10.4 mph 17.3 mph N/A   Clear
2:16 PM 73.4 °F - 51.8 °F 47% 29.85 in 10.0 mi SSE 11.5 mph - N/A   Clear
2:35 PM 73.4 °F - 51.8 °F 47% 29.84 in 10.0 mi SE 6.9 mph - N/A   Clear
2:55 PM 73.4 °F - 51.8 °F 47% 29.83 in 10.0 mi South 10.4 mph - N/A   Clear
3:15 PM 75.2 °F - 51.8 °F 44% 29.83 in 10.0 mi South 10.4 mph - N/A   Clear
3:35 PM 75.2 °F - 51.8 °F 44% 29.83 in 10.0 mi South 11.5 mph 17.3 mph N/A   Clear
3:55 PM 75.2 °F - 51.8 °F 44% 29.82 in 10.0 mi South 11.5 mph 17.3 mph N/A   Clear
4:15 PM 75.2 °F - 51.8 °F 44% 29.81 in 10.0 mi South 11.5 mph - N/A   Clear
4:35 PM 75.2 °F - 53.6 °F 47% 29.81 in 10.0 mi SE 8.1 mph 16.1 mph N/A   Clear
4:55 PM 75.2 °F - 53.6 °F 47% 29.80 in 10.0 mi South 10.4 mph - N/A   Clear
5:15 PM 75.2 °F - 53.6 °F 47% 29.79 in 10.0 mi SSE 9.2 mph - N/A   Clear
5:35 PM 75.2 °F - 51.8 °F 44% 29.79 in 10.0 mi SE 8.1 mph - N/A   Clear
5:55 PM 73.4 °F - 51.8 °F 47% 29.78 in 10.0 mi SE 10.4 mph - N/A   Clear
6:16 PM 73.4 °F - 51.8 °F 47% 29.78 in 10.0 mi SE 6.9 mph - N/A   Clear
6:35 PM 71.6 °F - 51.8 °F 50% 29.78 in 10.0 mi SE 5.8 mph - N/A   Clear
6:55 PM 69.8 °F - 50.0 °F 49% 29.77 in 10.0 mi SE 6.9 mph - N/A   Clear
7:15 PM 69.8 °F - 50.0 °F 49% 29.78 in 10.0 mi SE 5.8 mph - N/A   Clear
7:35 PM 68.0 °F - 48.2 °F 49% 29.78 in 10.0 mi SE 5.8 mph - N/A   Clear
7:56 PM 66.2 °F - 48.2 °F 52% 29.78 in 10.0 mi SE 5.8 mph - N/A   Clear
8:15 PM 66.2 °F - 48.2 °F 52% 29.78 in 10.0 mi SE 8.1 mph - N/A   Clear
8:36 PM 66.2 °F - 48.2 °F 52% 29.78 in 10.0 mi SE 6.9 mph - N/A   Clear
8:55 PM 66.2 °F - 48.2 °F 52% 29.78 in 10.0 mi SE 6.9 mph - N/A   Clear
9:16 PM 66.2 °F - 48.2 °F 52% 29.77 in 10.0 mi SE 5.8 mph - N/A   Clear
9:35 PM 64.4 °F - 48.2 °F 56% 29.78 in 10.0 mi SE 6.9 mph - N/A   Clear
9:56 PM 64.4 °F - 48.2 °F 56% 29.78 in 10.0 mi SE 6.9 mph - N/A   Clear
10:15 PM 64.4 °F - 48.2 °F 56% 29.77 in 10.0 mi SE 8.1 mph - N/A   Clear
10:36 PM 62.6 °F - 46.4 °F 55% 29.77 in 10.0 mi SSE 5.8 mph - N/A   Clear
10:55 PM 62.6 °F - 46.4 °F 55% 29.77 in 10.0 mi SE 5.8 mph - N/A   Clear
11:15 PM 62.6 °F - 46.4 °F 55% 29.76 in 10.0 mi SSE 8.1 mph - N/A   Clear
11:35 PM 62.6 °F - 46.4 °F 55% 29.76 in 10.0 mi SSE 9.2 mph - N/A   Clear
11:55 PM 62.6 °F - 46.4 °F 55% 29.76 in 10.0 mi SSE 8.1 mph - N/A   Clear